Breckenridge, TX

4:07 PM CDT on July 24, 2017 (GMT -0500)
Stephens County

Weather History for KBKD - November, 2013

Change the Weather History Date:

Monday, November 4, 2013

  Actual Average (KMWL) Record (KMWL)
Temperature  
Mean Temperature 64 °F -  
Max Temperature 70 °F 67 °F 84 °F (2003)
Min Temperature 58 °F 47 °F 26 °F (2011)
Degree Days  
Heating Degree Days 1    
Growing Degree Days 14 (Base 50)    
Moisture  
Dew Point 51 °F    
Average Humidity 66    
Maximum Humidity 91    
Minimum Humidity 49    
Precipitation  
Precipitation 0.00 in - - ()
Sea Level Pressure  
Sea Level Pressure 29.98 in    
Wind  
Wind Speed 11 mph (SSE)    
Max Wind Speed 18 mph    
Max Gust Speed 24 mph    
Visibility 10 miles    
Events Rain    
Averages and records for this station are not official NWS values.
T = Trace of Precipitation, MM = Missing Value Source: NWS Daily Summary

Daily Weather History Graph

Daily Weather History Graph

Search for Another Location

Airport or City:

Trip Planner

Search our weather history database for the weather conditions in past years. The results will help you decide how hot, cold, wet, or windy it might be!

Date:

Astronomy

Nov. 04, 2013 Rise Set
Actual Time 6:56 AM CST 5:41 PM CST
Civil Twilight 6:30 AM CST 6:07 PM CST
Nautical Twilight 6:01 AM CST 6:36 PM CST
Astronomical Twilight 5:32 AM CST 7:05 PM CST
Moon 8:04 AM CST (11/4) 6:51 PM CST (11/4)
Length of Visible Light 11h 36m
Length of Day
10h 45m
New Moon, 2% of the Moon is Illuminated
Nov 4
New Moon
Nov 9
First Quarter
Nov 17
Full
Nov 25
Last Quarter
Dec 2
New

Hourly Weather History & Observations

Time (CST) Temp. Dew Point Humidity Pressure Visibility Wind Dir Wind Speed Gust Speed Precip Events Conditions
12:15 AM 59.7 °F 42.1 °F 52% 29.97 in 10.0 mi South 5.8 mph - N/A   Overcast
12:35 AM 59.9 °F 41.2 °F 50% 29.97 in 10.0 mi SSE 6.9 mph - N/A   Overcast
12:55 AM 59.2 °F 41.4 °F 52% 29.96 in 10.0 mi South 9.2 mph - N/A   Mostly Cloudy
1:15 AM 59.2 °F 40.6 °F 50% 29.95 in 10.0 mi SSE 8.1 mph - N/A   Mostly Cloudy
1:35 AM 59.0 °F 40.1 °F 50% 29.93 in 10.0 mi SSE 11.5 mph - N/A   Scattered Clouds
1:55 AM 59.0 °F 40.1 °F 50% 29.93 in 10.0 mi SSE 9.2 mph - N/A   Scattered Clouds
2:15 AM 58.8 °F 39.7 °F 49% 29.95 in 10.0 mi SSE 8.1 mph - N/A   Scattered Clouds
2:35 AM 59.0 °F 39.6 °F 49% 29.95 in 10.0 mi SSE 10.4 mph - N/A   Mostly Cloudy
2:55 AM 59.2 °F 40.1 °F 49% 29.95 in 10.0 mi SSE 8.1 mph - N/A   Overcast
3:15 AM 59.5 °F 40.8 °F 50% 29.94 in 10.0 mi SSE 9.2 mph - N/A   Overcast
3:35 AM 59.4 °F 41.9 °F 52% 29.92 in 10.0 mi SSE 16.1 mph - N/A   Overcast
3:55 AM 59.5 °F 42.8 °F 54% 29.93 in 10.0 mi SSE 15.0 mph - N/A   Mostly Cloudy
4:15 AM 59.5 °F 44.1 °F 57% 29.93 in 10.0 mi SSE 11.5 mph - N/A   Clear
4:35 AM 59.9 °F 45.1 °F 58% 29.93 in 10.0 mi SSE 13.8 mph 20.7 mph N/A   Clear
4:55 AM 59.9 °F 46.2 °F 61% 29.93 in 10.0 mi SSE 8.1 mph 16.1 mph N/A   Clear
5:15 AM 60.1 °F 47.1 °F 62% 29.93 in 10.0 mi SSE 12.7 mph 16.1 mph N/A   Clear
5:35 AM 60.4 °F 48.0 °F 64% 29.93 in 10.0 mi SSE 11.5 mph - N/A   Clear
5:55 AM 60.3 °F 48.6 °F 65% 29.93 in 10.0 mi SSE 11.5 mph - N/A   Clear
6:15 AM 60.1 °F 49.1 °F 67% 29.95 in 10.0 mi South 9.2 mph - N/A   Clear
6:35 AM 59.9 °F 49.5 °F 68% 29.93 in 10.0 mi SSE 12.7 mph - N/A   Clear
6:55 AM 60.1 °F 50.2 °F 70% 29.95 in 10.0 mi SSE 13.8 mph 18.4 mph N/A   Clear
7:15 AM 59.9 °F 50.5 °F 71% 29.95 in 10.0 mi North - - N/A   Clear
7:35 AM 60.1 °F 50.9 °F 72% 29.96 in 10.0 mi South 13.8 mph - N/A   Clear
7:55 AM 59.9 °F 51.4 °F 74% 29.97 in 10.0 mi SSE 11.5 mph 18.4 mph N/A   Clear
8:15 AM 60.1 °F 51.6 °F 74% 29.98 in 10.0 mi SSE 11.5 mph 16.1 mph N/A   Clear
8:35 AM 61.0 °F 52.0 °F 72% 29.99 in 10.0 mi South 9.2 mph 17.3 mph N/A   Clear
8:55 AM 61.7 °F 52.3 °F 71% 30.01 in 10.0 mi South 9.2 mph 21.9 mph N/A   Clear
9:15 AM 62.6 °F 52.3 °F 69% 30.00 in 10.0 mi South 11.5 mph 16.1 mph N/A   Clear
9:35 AM 63.7 °F 52.9 °F 68% 30.01 in 10.0 mi North - - N/A   Clear
9:55 AM 64.4 °F 52.7 °F 66% 30.01 in 10.0 mi South 13.8 mph 18.4 mph N/A   Clear
10:15 AM 65.1 °F 52.9 °F 65% 30.01 in 10.0 mi SSW 13.8 mph 19.6 mph N/A   Clear
10:35 AM 65.7 °F 52.9 °F 63% 30.01 in 10.0 mi South 12.7 mph - N/A   Scattered Clouds
10:55 AM 66.0 °F 53.1 °F 63% 30.00 in 10.0 mi South 12.7 mph 19.6 mph N/A   Overcast
11:15 AM 66.2 °F 53.4 °F 63% 30.01 in 10.0 mi South 13.8 mph 18.4 mph N/A   Overcast
11:35 AM 66.2 °F 53.6 °F 64% 30.01 in 10.0 mi SSE 11.5 mph 17.3 mph N/A   Overcast
11:55 AM 68.0 °F 54.0 °F 61% 29.99 in 10.0 mi South 15.0 mph 19.6 mph N/A   Overcast
12:15 PM 67.1 °F 54.0 °F 63% 29.98 in 10.0 mi South 13.8 mph 19.6 mph N/A   Mostly Cloudy
12:35 PM 67.5 °F 54.5 °F 63% 29.98 in 10.0 mi South 10.4 mph 19.6 mph N/A   Mostly Cloudy
12:55 PM 69.3 °F 54.5 °F 59% 29.97 in 10.0 mi South 13.8 mph - N/A   Overcast
1:15 PM 68.0 °F 53.8 °F 60% 29.97 in 10.0 mi South 18.4 mph 23.0 mph N/A   Mostly Cloudy
1:35 PM 69.4 °F 54.3 °F 59% 29.96 in 10.0 mi South 15.0 mph 20.7 mph N/A   Mostly Cloudy
1:55 PM 70.2 °F 54.5 °F 57% 29.96 in 10.0 mi South 18.4 mph 23.0 mph N/A   Overcast
2:15 PM 68.5 °F 54.1 °F 60% 29.96 in 10.0 mi South 16.1 mph 20.7 mph N/A   Overcast
2:35 PM 68.4 °F 54.0 °F 60% 29.96 in 10.0 mi South 15.0 mph 24.2 mph N/A   Overcast
2:55 PM 69.1 °F 54.3 °F 59% 29.96 in 10.0 mi South 17.3 mph 21.9 mph N/A   Overcast
3:15 PM 68.9 °F 54.1 °F 59% 29.96 in 10.0 mi South 15.0 mph - N/A   Overcast
3:35 PM 68.5 °F 53.6 °F 59% 29.96 in 10.0 mi South 13.8 mph 24.2 mph N/A   Overcast
3:55 PM 66.9 °F 53.6 °F 62% 29.96 in 10.0 mi South 15.0 mph - N/A   Mostly Cloudy
4:15 PM 66.7 °F 53.6 °F 63% 29.96 in 10.0 mi South 13.8 mph 18.4 mph N/A   Overcast
4:35 PM 66.6 °F 53.1 °F 62% 29.97 in 10.0 mi South 9.2 mph 17.3 mph N/A   Overcast
4:55 PM 66.2 °F 53.1 °F 63% 29.96 in 10.0 mi South 8.1 mph - N/A   Overcast
5:15 PM 65.8 °F 53.8 °F 65% 29.97 in 10.0 mi SE 9.2 mph - N/A   Overcast
5:35 PM 64.9 °F 54.5 °F 69% 29.98 in 10.0 mi SE 10.4 mph - N/A   Overcast
5:55 PM 64.0 °F 55.0 °F 73% 29.99 in 10.0 mi SE 13.8 mph 19.6 mph N/A   Overcast
6:15 PM 63.7 °F 55.4 °F 74% 29.99 in 10.0 mi SSE 12.7 mph 16.1 mph N/A   Overcast
6:35 PM 63.3 °F 55.6 °F 76% 30.00 in 10.0 mi SE 12.7 mph 19.6 mph N/A   Overcast
6:55 PM 63.0 °F 55.6 °F 77% 30.00 in 10.0 mi SSE 11.5 mph - N/A   Overcast
7:15 PM 62.8 °F 55.6 °F 77% 30.01 in 10.0 mi SSE 12.7 mph 18.4 mph N/A   Overcast
7:35 PM 62.6 °F 55.6 °F 78% 30.00 in 10.0 mi SSE 13.8 mph 20.7 mph N/A   Overcast
7:55 PM 62.6 °F 55.6 °F 78% 30.01 in 10.0 mi SSE 11.5 mph 19.6 mph N/A   Overcast
8:15 PM 62.6 °F 55.6 °F 78% 30.01 in 10.0 mi SSE 16.1 mph 20.7 mph N/A   Overcast
8:35 PM 62.6 °F 55.8 °F 78% 30.01 in 10.0 mi SSE 15.0 mph 23.0 mph N/A   Mostly Cloudy
8:55 PM 62.6 °F 55.8 °F 78% 30.01 in 10.0 mi SE 15.0 mph - N/A   Overcast
9:15 PM 62.6 °F 56.1 °F 79% 30.01 in 10.0 mi SE 13.8 mph - N/A   Overcast
9:35 PM 62.1 °F 56.3 °F 81% 30.01 in 10.0 mi SE 8.1 mph - N/A   Mostly Cloudy
9:55 PM 62.1 °F 56.5 °F 82% 30.01 in 10.0 mi SSE 10.4 mph - N/A   Overcast
10:15 PM 62.6 °F 57.2 °F 82% 30.01 in 10.0 mi SE 15.0 mph 19.6 mph N/A   Overcast
10:35 PM 62.8 °F 57.2 °F 82% 30.02 in 10.0 mi SSE 13.8 mph 17.3 mph N/A   Overcast
10:55 PM 63.0 °F 57.4 °F 82% 30.02 in 10.0 mi SSE 10.4 mph - N/A   Overcast
11:15 PM 63.0 °F 57.6 °F 82% 30.01 in 10.0 mi SSE 10.4 mph 16.1 mph N/A   Overcast
11:35 PM 63.0 °F 57.7 °F 83% 30.01 in 10.0 mi SSE 11.5 mph - N/A Rain Light Rain
11:55 PM 62.2 °F 59.5 °F 91% 30.00 in 10.0 mi SE 8.1 mph - N/A   Overcast